一网星座-0398星 (ONEWEB-0398 )

导读 | 豆包AI

ONEWEB-0398是由英国(GB)主导的OneWeb星座组网卫星,于2021年12月27日发射入轨,属于OneWeb低轨宽带卫星互联网项目的组成部分。该卫星运行于近地轨道,主要为全球偏远地区及网络覆盖薄弱区域提供高速宽带接入服务,推动全球互联网络覆盖的普及,是OneWeb大规模卫星星座组网计划中的一颗重要卫星。

Basic Information
目录编号:
50478
目录名称:
ONEWEB-0398
国际标识:
2021-132K
轨道中心:
EARTH
卫星名称:
一网星座-0398星
卫星全名:
一网星座-0398星 (ONEWEB-0398 )
卫星状态:
在轨 (已飞行1538 天)
发射日期:
2021-12-27 UTC
国别 :
英国 (GB)
星等 :
--
Orbit Information
数据来源 国际轨道数据 AOE轨道数据
星历时间 2026-03-14T05:59:43+0800
14小时前
查看轨道信息
2026-03-14T11:00:00+0800
9小时前
查看轨道信息
半长轴 7595.829km 7595.833km
偏心率 0.0002182 0.0002258
轨道倾角 87.887° 87.888°
近地点辐角 77.079° 79.599°
升交点赤经 39.993° 39.952°
平近点角 283.058° 184.498°
近地点 1216.034km 1215.98km
远地点 1219.35km 1219.412km
周期 109.805分钟 109.805分钟
每日圈数 13.114146 13.114137
Detailed Information
平衡模式:
三轴稳定
覆盖范围:
全球
运营商:
一网卫星公司
运营商所在国:
英国
制造商(研发单位):
一网卫星公司
制造商所在国:
英国
使用方式:
暂无
Satellite Introduction
OneWeb卫星网络由648颗重约125公斤的微型卫星组成,运行在1200公里的轨道上。 每颗卫星都能够提供至少每秒8千兆位的吞吐量,以使用其高吞吐量的Ku频段有效载荷为家庭和移动平台提供互联网接入。该卫星仍在工作。
2D Orbit Map
3D Orbit Map
Orbit Altitude Analysis Chart
Orbit Inclination Analysis Chart
Orbit Comprehensive Analysis Chart
View Comprehensive Chart